Location: Cahas Mountain Overlook
(37.0833°N, 80.1000°W)
Time: 19:47:41
(UTC-05:00)

Vanguard 3 - Pass Details

Date: 07 December 2023
Orbit: 508 x 3239 km, 33.4° (Epoch: 23 February)

Event Time Altitude Azimuth Distance (km) Brightness Sun altitude
Rises 19:44:58 0° 225° (SW) 7,113 12.6 -31.5°
Reaches altitude 10° 19:50:24 10° 220° (SW) 5,913 12.0 -32.6°
Maximum altitude 20:06:07 43° 157° (SSE) 2,956 9.7 -35.7°
Enters shadow 20:07:11 43° 146° (SE) 2,895 9.6 -35.9°
